Weather History for KGLR - October, 2013

Change the Weather History Date:

Tuesday, October 29, 2013

  Actual Average Record
Temperature  
Mean Temperature 28 °F -  
Max Temperature 39 °F 49 °F 71 °F (1989)
Min Temperature 18 °F 32 °F 14 °F (1978)
Degree Days  
Heating Degree Days 38    
Moisture  
Dew Point 24 °F    
Average Humidity 81    
Maximum Humidity 96    
Minimum Humidity 53    
Precipitation  
Precipitation 0.00 in - - ()
Sea Level Pressure  
Sea Level Pressure 30.41 in    
Wind  
Wind Speed 2 mph (South)    
Max Wind Speed 8 mph    
Max Gust Speed -    
Visibility 9 miles    
Events Snow    
Averages and records for this station are not official NWS values.
T = Trace of Precipitation, MM = Missing Value Source: NWS Daily Summary

Daily Weather History Graph

Daily Weather History Graph

Search for Another Location

Airport or City:

Trip Planner

Search our weather history database for the weather conditions in past years. The results will help you decide how hot, cold, wet, or windy it might be!

Date:

Astronomy

Oct. 29, 2013 Rise Set
Actual Time 8:13 AM EDT 6:30 PM EDT
Civil Twilight 7:43 AM EDT 7:01 PM EDT
Nautical Twilight 7:08 AM EDT 7:35 PM EDT
Astronomical Twilight 6:34 AM EDT 8:09 PM EDT
Moon 2:49 AM EDT (10/29) 3:55 PM EDT (10/29)
Length of Visible Light 11h 18m
Length of Day
10h 17m
Waning Crescent, 25% of the Moon is Illuminated
Oct 29
Waning Crescent
Nov 3
New
Nov 10
First Quarter
Nov 17
Full
Nov 25
Last Quarter

Hourly Weather History & Observations

Time (EDT) Temp. Windchill Dew Point Humidity Pressure Visibility Wind Dir Wind Speed Gust Speed Precip Events Conditions
12:53 AM 24.1 °F - 19.9 °F 84% 30.50 in 10.0 mi Calm Calm - N/A   Clear
1:53 AM 24.1 °F - 19.9 °F 84% 30.50 in 10.0 mi Calm Calm - N/A   Clear
2:53 AM 23.0 °F - 19.0 °F 85% 30.50 in 10.0 mi Calm Calm - N/A   Clear
3:53 AM 19.9 °F - 17.1 °F 89% 30.50 in 10.0 mi Calm Calm - N/A   Clear
4:53 AM 21.0 °F - 17.1 °F 85% 30.49 in 10.0 mi Calm Calm - N/A   Clear
5:53 AM 18.0 °F - 15.1 °F 88% 30.49 in 10.0 mi Calm Calm - N/A   Clear
6:53 AM 19.9 °F - 17.1 °F 89% 30.50 in 10.0 mi Calm Calm - N/A   Clear
7:53 AM 18.0 °F - 15.1 °F 88% 30.50 in 10.0 mi Calm Calm - N/A   Clear
8:53 AM 19.9 °F - 18.0 °F 92% 30.50 in 10.0 mi Calm Calm - N/A   Clear
9:53 AM 28.0 °F 24.2 °F 23.0 °F 81% 30.49 in 10.0 mi Variable 3.5 mph - N/A   Clear
10:53 AM 30.9 °F 26.2 °F 24.1 °F 76% 30.49 in 10.0 mi ESE 4.6 mph - N/A   Clear
11:53 AM 32.0 °F 27.5 °F 25.0 °F 75% 30.48 in 10.0 mi SSE 4.6 mph - N/A   Clear
12:53 PM 35.1 °F 31.0 °F 23.0 °F 61% 30.45 in 10.0 mi ESE 4.6 mph - N/A   Clear
1:53 PM 37.0 °F 32.4 °F 24.1 °F 59% 30.42 in 10.0 mi SSE 5.8 mph - N/A   Mostly Cloudy
2:53 PM 37.9 °F 32.1 °F 21.9 °F 53% 30.39 in 10.0 mi South 8.1 mph - N/A   Scattered Clouds
3:53 PM 37.9 °F 32.7 °F 23.0 °F 55% 30.38 in 10.0 mi South 6.9 mph - N/A   Overcast
4:53 PM 37.9 °F 32.7 °F 21.9 °F 53% 30.36 in 10.0 mi South 6.9 mph - N/A   Overcast
5:53 PM 37.9 °F 33.5 °F 21.9 °F 53% 30.35 in 10.0 mi SW 5.8 mph - N/A   Overcast
6:44 PM 33.1 °F 27.7 °F 30.0 °F 89% 30.30 in 2.5 mi SW 5.8 mph - 0.00 in Snow Light Snow
6:53 PM 33.1 °F 28.7 °F 30.9 °F 92% 30.35 in 3.0 mi SSW 4.6 mph - 0.00 in Snow Light Snow
7:00 PM 33.1 °F 30.0 °F 30.9 °F 92% 30.29 in 2.5 mi SSW 3.5 mph - 0.00 in Snow Light Snow
7:13 PM 33.1 °F 30.0 °F 30.9 °F 92% 30.29 in 4.0 mi SW 3.5 mph - 0.00 in Snow Light Snow
7:53 PM 33.1 °F 28.7 °F 32.0 °F 96% 30.34 in 10.0 mi South 4.6 mph - 0.00 in   Overcast
8:53 PM 33.1 °F 28.7 °F 30.9 °F 92% 30.32 in 10.0 mi South 4.6 mph - N/A   Overcast
9:53 PM 33.1 °F 30.0 °F 30.9 °F 92% 30.29 in 10.0 mi South 3.5 mph - N/A   Overcast
10:53 PM 33.1 °F 28.7 °F 30.9 °F 92% 30.27 in 10.0 mi South 4.6 mph - N/A   Overcast
11:53 PM 34.0 °F 27.2 °F 32.0 °F 92% 30.25 in 10.0 mi South 8.1 mph - N/A   Overcast